Wind_Speed
4 4 5 4 4 5 5 5 5 5 5 5 5 5 5 5 5 5 5 6 6 5 5 4 4 4 4 3 3 4 4 4 4 5 5 6 5 5 5 5 6 7 7
3 3 4 3 3 3 4 4 4 5 4 4 5 5 5 5 5 5 5 6 5 5 5 4 4 4 4 4 4 3 4 4 5 5 5 5 5 6 6 5 6 6 6
2 2 3 2 2 2 3 3 3 3 4 5 4 5 5 5 5 5 6 6 6 6 5 5 5 5 4 4 4 4 4 4 4 5 5 4 4 6 6 6 6 6 7
1 1 1 1 1 1 1 2 3 3 4 4 5 5 6 6 6 6 6 6 6 6 5 5 5 5 5 5 4 4 5 4 4 5 5 5 5 6 7 7 7 7 7
1 1 1 1 1 1 1 2 3 3 3 4 5 6 6 6 7 7 7 6 6 5 5 5 5 5 5 5 5 5 5 5 5 5 5 5 6 7 7 7 7 8 8
2 2 2 2 3 2 3 3 3 3 4 4 5 6 6 7 7 7 7 7 6 6 6 5 6 6 6 6 5 5 5 5 5 5 5 6 6 7 7 8 7 8 8
3 3 3 3 3 4 4 3 3 4 5 6 6 7 7 7 7 7 7 7 7 7 7 7 7 7 6 6 6 6 5 5 5 6 6 6 7 7 8 8 9 9 9
4 4 4 4 4 4 4 4 5 5 6 7 7 8 9 9 8 8 8 8 8 8 7 7 7 7 7 7 7 7 6 6 6 7 7 7 7 7 8 9 10 10 10
5 5 5 5 5 4 5 5 6 6 7 8 9 9 9 9 9 9 9 9 10 9 8 8 8 8 8 7 8 7 8 7 7 7 7 7 8 8 9 9 10 11 11
7 7 6 6 6 5 6 7 7 8 8 9 9 9 9 10 9 10 10 10 10 9 9 9 8 8 8 9 9 9 9 9 9 8 7 8 8 9 9 9 10 11 11
9 8 7 7 7 7 7 8 8 9 9 9 9 10 10 9 10 10 10 10 10 10 10 9 9 9 9 9 9 10 10 10 9 9 8 9 9 9 9 10 10 11 11
10 10 9 8 9 9 9 9 9 10 10 10 10 11 11 10 11 11 11 11 11 11 11 11 11 10 10 10 10 10 11 11 11 11 10 10 10 10 11 11 11 12 12
10 10 10 10 10 10 10 10 11 11 11 11 11 11 12 12 12 12 13 13 12 12 13 13 13 12 12 12 12 12 12 12 12 12 11 11 11 11 12 13 12 12 12
11 11 12 12 12 12 12 12 12 12 13 13 13 13 13 13 13 13 14 14 14 14 15 15 14 14 14 14 14 13 14 14 14 14 13 13 13 13 12 13 13 14 14
13 13 13 14 14 14 14 14 14 14 14 14 15 15 15 14 15 15 16 17 16 15 15 16 16 15 15 16 16 16 16 15 15 15 15 14 14 14 14 14 14 14 14
14 14 15 15 16 16 16 16 16 16 16 15 16 17 17 17 17 17 17 18 18 17 16 17 17 17 17 17 17 17 17 17 16 16 16 15 15 15 15 15 15 15 15
16 16 17 17 17 18 18 18 18 17 17 17 18 18 18 18 19 19 19 19 19 18 18 18 18 19 19 19 19 19 18 18 18 18 17 17 16 16 16 16 16 17 17
17 18 18 18 19 19 19 19 19 19 19 20 20 20 19 19 20 20 20 20 20 19 19 20 20 21 21 20 20 20 19 19 19 19 19 19 18 18 18 18 18 18 18
19 19 19 19 20 20 20 20 21 21 21 21 21 21 21 21 21 21 20 21 21 21 21 21 22 22 22 21 21 21 21 20 20 20 20 20 19 20 20 20 20 21 20
18 19 20 21 21 22 22 21 22 22 22 22 22 23 22 22 22 22 22 22 22 22 22 22 23 23 23 23 23 23 22 22 22 22 22 22 22 22 22 22 22 23 23
19 20 20 21 22 23 23 24 24 23 23 24 23 24 24 23 23 23 23 23 23 22 22 23 23 23 24 24 24 24 24 24 24 24 23 24 24 24 25 24 24 24 24
20 21 22 22 23 23 24 24 25 25 24 24 24 24 24 24 24 24 24 24 23 23 23 24 23 24 24 25 25 25 25 25 26 26 26 26 27 26 26 26 26 26 26
21 22 23 24 23 23 24 24 24 25 25 25 26 25 26 26 25 25 24 24 24 25 25 25 25 25 26 25 26 26 26 26 27 27 27 27 28 28 28 28 28 28 29
23 23 24 24 25 25 25 25 25 26 26 26 26 26 27 26 26 25 25 25 26 26 27 27 28 28 28 28 27 27 28 28 28 28 28 28 28 29 30 29 30 30 30
24 25 26 26 26 26 26 26 26 27 27 28 28 28 28 28 28 28 28 28 28 28 29 29 29 30 30 29 29 30 30 30 29 29 29 29 29 29 30 30 30 31 31
25 26 26 26 26 26 26 27 27 28 28 29 29 30 30 30 30 29 29 29 30 30 31 31 31 31 31 31 31 31 31 32 31 31 31 31 31 31 31 31 32 32 32
Wind_Direction
95 87 83 85 82 75 67 62 60 53 42 37 35 32 34 31 28 28 21 12 7 1 353 349 337 326 329 329 299 285 280 276 266 260 248 244 244 242 240 242 245 245 247
103 97 99 95 87 78 65 63 58 49 41 32 25 24 24 19 17 14 11 7 2 1 360 356 350 339 331 329 323 297 284 282 270 258 249 251 245 243 244 245 243 245 248
120 117 110 103 80 68 63 50 40 40 30 18 13 12 7 4 1 4 4 4 2 360 2 4 357 353 350 342 328 317 306 287 268 264 253 256 260 252 247 246 246 250 252
138 153 143 126 63 55 41 26 18 19 15 9 6 2 357 355 357 356 355 354 355 355 357 355 358 356 349 336 326 319 313 304 288 277 264 255 254 253 252 254 252 252 254
223 228 222 226 281 307 324 338 341 351 357 353 354 352 349 349 349 349 345 344 346 347 345 345 345 342 336 332 324 322 316 300 288 282 269 257 256 257 258 261 261 257 255
268 269 272 263 264 281 301 310 323 328 336 339 340 341 340 340 340 341 342 341 337 335 333 329 328 327 329 329 324 318 311 295 283 280 274 264 262 261 261 262 261 261 262
272 275 274 280 278 282 295 308 319 322 325 328 326 326 328 329 330 331 332 334 331 326 322 319 318 324 322 321 317 314 313 306 293 281 278 270 266 264 261 260 261 262 263
265 264 266 274 278 289 298 306 311 315 318 320 320 320 320 321 320 322 323 324 326 324 319 317 317 323 321 316 313 304 307 304 294 289 285 277 267 269 268 264 263 263 264
260 258 262 275 281 289 294 304 305 306 309 311 313 313 312 312 313 316 318 321 321 319 318 314 313 312 309 309 309 305 299 301 298 289 285 285 277 275 274 270 266 266 265
270 264 262 271 278 283 291 299 305 307 308 310 310 310 310 308 306 308 312 317 319 314 310 311 312 311 309 307 304 299 298 298 297 289 286 285 283 280 277 275 272 269 268
273 271 271 272 275 282 289 294 300 302 307 311 310 309 309 305 303 304 306 311 314 313 309 306 305 303 303 299 295 297 294 296 294 286 283 280 280 279 277 275 274 273 273
277 271 271 275 275 280 285 290 296 297 301 305 306 307 306 304 302 301 303 306 308 306 306 303 300 298 298 297 295 295 295 294 288 284 281 280 279 278 279 279 278 275 275
280 271 272 273 275 280 284 288 292 295 299 301 303 304 305 304 301 298 299 301 303 303 302 301 298 296 297 297 294 290 292 293 288 285 280 277 277 278 278 276 276 276 275
282 275 275 275 276 280 285 288 291 293 297 297 299 300 302 302 300 298 298 299 299 300 300 299 298 297 297 297 295 292 291 291 289 284 280 278 276 277 277 275 274 271 273
279 278 274 275 276 280 285 289 291 293 294 294 295 296 298 298 298 297 297 296 296 296 296 296 295 295 295 295 294 293 292 291 290 289 283 280 277 276 277 276 275 273 272
279 277 276 276 276 279 283 285 287 288 291 291 292 295 296 295 295 295 295 294 293 292 293 293 293 293 294 294 292 290 289 288 287 288 288 284 279 276 277 278 278 278 276
281 279 276 275 275 277 279 283 285 285 287 287 290 293 294 293 294 294 294 294 293 290 289 290 291 290 291 292 291 290 287 286 285 285 286 282 279 280 279 280 279 277 278
284 281 278 276 276 277 279 282 283 284 285 287 288 289 290 291 291 291 291 291 291 289 288 288 289 289 290 290 290 288 287 286 285 284 283 283 281 279 279 277 276 277 278
287 283 280 278 278 277 278 280 281 282 284 284 285 287 289 289 290 291 291 289 288 286 287 287 288 288 288 287 287 286 286 285 283 282 280 280 280 279 278 277 275 274 277
289 285 282 281 280 279 279 281 284 282 283 283 284 287 288 288 288 289 290 290 288 286 286 287 288 288 288 286 285 283 283 283 281 281 279 278 277 277 278 278 276 274 274
286 285 283 283 281 280 280 281 283 283 284 283 283 285 286 287 286 286 288 288 288 289 288 287 288 287 288 286 283 283 283 282 281 279 276 277 276 276 277 276 275 275 275
286 283 282 284 282 280 280 281 281 282 284 283 283 284 285 286 285 286 288 288 288 289 288 287 288 287 288 286 284 283 283 282 280 278 278 277 277 276 276 276 275 275 275
292 288 286 287 284 282 283 285 284 284 284 284 284 284 285 287 287 286 286 287 287 287 287 286 287 287 287 286 285 284 284 283 282 279 278 278 277 277 277 277 277 276 275
292 288 287 285 285 285 284 285 285 284 284 286 287 285 286 287 287 286 286 288 288 289 287 285 286 287 287 285 284 284 284 282 281 279 277 277 277 277 276 276 277 276 275
290 289 288 287 287 287 286 285 286 286 288 288 288 286 286 286 286 285 285 287 288 288 287 286 286 287 287 287 285 283 283 283 281 281 279 278 277 277 276 275 276 276 274
287 287 287 288 289 288 286 287 287 288 289 289 288 287 287 286 285 284 284 286 287 288 288 287 286 287 286 285 285 284 283 282 280 280 280 279 278 277 276 275 275 274 274
Height
5898 5897 5897 5896 5896 5895 5895 5894 5894 5893 5893 5892 5891 5890 5889 5887 5887 5886 5885 5884 5883 5882 5881 5879 5878 5877 5876 5875 5874 5873 5873 5874 5874 5874 5874 5874 5874 5875 5875 5875 5876 5876 5876
5899 5898 5897 5897 5897 5896 5896 5895 5895 5894 5893 5892 5891 5890 5889 5888 5887 5886 5885 5884 5883 5881 5880 5879 5878 5877 5876 5875 5873 5873 5873 5873 5873 5873 5873 5873 5874 5874 5874 5874 5874 5875 5875
5899 5899 5898 5898 5897 5896 5896 5896 5895 5895 5894 5893 5892 5891 5890 5889 5888 5887 5885 5884 5882 5881 5880 5879 5878 5877 5876 5875 5874 5873 5873 5872 5872 5872 5872 5872 5872 5873 5873 5873 5873 5873 5874
5899 5899 5898 5898 5897 5897 5896 5896 5896 5895 5894 5893 5892 5891 5890 5889 5888 5887 5885 5884 5882 5881 5880 5879 5878 5877 5876 5874 5873 5873 5872 5872 5871 5871 5871 5871 5872 5872 5872 5872 5872 5872 5872
5899 5899 5899 5898 5897 5897 5897 5896 5895 5895 5894 5893 5892 5891 5890 5889 5888 5886 5885 5884 5882 5881 5880 5879 5878 5877 5875 5874 5873 5872 5871 5871 5870 5870 5870 5870 5870 5871 5871 5871 5871 5871 5871
5899 5899 5898 5898 5897 5897 5896 5896 5895 5895 5894 5893 5892 5891 5890 5889 5887 5886 5885 5883 5882 5881 5880 5878 5877 5876 5875 5874 5873 5871 5870 5870 5869 5869 5869 5869 5869 5869 5869 5869 5869 5869 5870
5898 5898 5897 5897 5897 5896 5896 5895 5895 5894 5893 5892 5891 5890 5889 5887 5886 5885 5884 5883 5881 5880 5879 5878 5876 5875 5874 5873 5872 5871 5870 5869 5868 5868 5868 5868 5868 5868 5868 5868 5868 5868 5868
5897 5897 5897 5896 5896 5895 5895 5894 5894 5893 5892 5891 5890 5889 5888 5887 5885 5884 5883 5881 5880 5879 5878 5876 5875 5874 5873 5871 5870 5869 5869 5868 5867 5866 5866 5866 5866 5866 5866 5866 5866 5865 5865
5896 5896 5895 5895 5894 5894 5894 5893 5893 5892 5891 5890 5889 5888 5887 5885 5884 5882 5881 5880 5878 5877 5876 5875 5874 5872 5871 5870 5869 5868 5868 5867 5866 5865 5865 5864 5864 5863 5863 5863 5863 5863 5863
5895 5895 5894 5894 5893 5893 5893 5892 5891 5890 5889 5888 5887 5886 5885 5884 5882 5881 5880 5878 5877 5875 5874 5873 5872 5871 5870 5869 5868 5867 5866 5865 5864 5863 5863 5862 5861 5861 5861 5860 5860 5860 5859
5893 5893 5893 5892 5892 5891 5891 5890 5890 5888 5887 5886 5885 5884 5883 5882 5880 5879 5878 5876 5875 5873 5872 5871 5870 5869 5868 5867 5866 5865 5864 5863 5862 5861 5860 5860 5859 5858 5858 5857 5857 5857 5856
5891 5891 5890 5890 5890 5890 5889 5888 5887 5886 5885 5884 5883 5882 5881 5880 5878 5877 5876 5874 5873 5871 5870 5869 5868 5867 5865 5864 5863 5863 5862 5861 5859 5859 5858 5857 5856 5856 5855 5854 5854 5853 5853
5888 5888 5888 5888 5888 5887 5887 5886 5885 5884 5883 5882 5881 5879 5878 5877 5875 5874 5873 5872 5870 5869 5867 5866 5865 5864 5863 5862 5861 5860 5859 5857 5856 5855 5854 5854 5853 5853 5852 5851 5850 5850 5849
5886 5885 5885 5885 5885 5884 5884 5883 5882 5881 5880 5879 5878 5876 5875 5874 5872 5871 5870 5869 5867 5866 5864 5863 5861 5860 5859 5858 5857 5856 5855 5854 5853 5852 5851 5850 5850 5849 5848 5848 5847 5846 5846
5883 5882 5882 5882 5881 5881 5880 5879 5879 5878 5877 5876 5874 5873 5871 5870 5869 5867 5866 5865 5864 5862 5861 5859 5857 5856 5855 5853 5853 5852 5851 5850 5849 5848 5847 5846 5845 5845 5844 5844 5843 5842 5842
5879 5879 5878 5878 5878 5877 5876 5876 5875 5874 5873 5871 5870 5869 5867 5866 5864 5863 5862 5860 5859 5858 5856 5855 5853 5852 5850 5849 5848 5847 5846 5845 5844 5843 5842 5842 5841 5840 5840 5839 5839 5838 5838
5876 5875 5875 5874 5873 5873 5872 5871 5870 5869 5868 5867 5865 5864 5863 5861 5860 5858 5857 5856 5854 5853 5852 5851 5849 5847 5846 5845 5844 5843 5841 5840 5839 5839 5838 5837 5837 5836 5835 5835 5835 5834 5834
5872 5871 5870 5870 5869 5868 5867 5866 5865 5864 5863 5862 5860 5859 5858 5856 5855 5853 5852 5850 5849 5847 5846 5845 5844 5842 5841 5839 5838 5837 5836 5835 5834 5833 5833 5832 5831 5831 5831 5830 5830 5829 5829
5867 5866 5865 5865 5864 5863 5862 5861 5860 5859 5858 5856 5855 5853 5852 5850 5849 5847 5846 5844 5843 5842 5840 5839 5838 5836 5835 5833 5832 5831 5830 5829 5828 5828 5827 5827 5826 5825 5825 5825 5824 5824 5823
5862 5861 5860 5860 5859 5858 5857 5856 5854 5853 5852 5851 5849 5847 5846 5844 5843 5841 5840 5838 5836 5835 5834 5833 5831 5829 5828 5827 5826 5825 5824 5823 5822 5821 5821 5820 5820 5819 5819 5818 5818 5817 5817
5857 5856 5855 5854 5853 5852 5851 5850 5849 5848 5846 5844 5843 5841 5839 5838 5836 5835 5833 5832 5830 5828 5827 5826 5824 5823 5821 5820 5819 5818 5817 5816 5815 5814 5814 5813 5813 5812 5812 5811 5811 5810 5810
5852 5850 5849 5848 5847 5846 5845 5844 5842 5841 5839 5838 5836 5835 5833 5831 5830 5828 5826 5825 5824 5822 5821 5819 5817 5816 5815 5813 5812 5810 5809 5809 5808 5807 5806 5806 5805 5804 5804 5804 5803 5803 5802
5846 5845 5843 5842 5841 5840 5839 5837 5835 5834 5832 5831 5829 5827 5826 5824 5823 5821 5819 5818 5816 5815 5814 5812 5811 5809 5807 5806 5804 5803 5802 5801 5800 5799 5798 5797 5796 5796 5795 5795 5795 5794 5794
5840 5839 5837 5836 5835 5833 5832 5831 5829 5827 5825 5823 5822 5820 5818 5817 5815 5813 5812 5810 5809 5807 5806 5804 5803 5801 5799 5798 5796 5795 5794 5792 5791 5790 5789 5789 5788 5787 5787 5786 5786 5785 5785
5834 5832 5831 5829 5827 5826 5824 5823 5821 5819 5817 5816 5814 5812 5810 5809 5807 5806 5804 5802 5801 5799 5797 5796 5794 5792 5791 5789 5787 5786 5785 5783 5782 5781 5780 5780 5779 5778 5777 5777 5776 5776 5775
5827 5825 5823 5821 5820 5818 5817 5815 5813 5811 5810 5808 5806 5804 5802 5800 5799 5797 5795 5793 5792 5790 5788 5786 5785 5783 5781 5780 5778 5777 5775 5774 5773 5772 5771 5770 5769 5769 5768 5768 5767 5766 5766